This demonstration page uses our WeatherBlox Daily Observations layout. Learn more.

Left ArrowRight Arrow

Hourly Observations for May 3, 2018

Temp ( °F °C ) Dew Point ( °F °C ) Humidity (%) Winds ( mph kmh ) Pressure ( in mb ) Visibility ( mi km ) Precip ( " mm )
12:36 am 00:36 Cloudy 54 12 46 8 77 77 ENE 13 20 29.88 1012 10 16 0.00 0.00
12:56 am 00:56 Cloudy 54 12.2 48 8.9 80 80 ENE 13 20 29.88 1012 10 16 0.00 0.00
1:06 am 01:06 Mostly Cloudy 54 12 48 9 82 82 ENE 12 19 29.85 1011 10 16 0.00 0.00
1:56 am 01:56 Mostly Clear 52 11.1 46 7.8 80 80 ENE 14 22 29.83 1010 10 16 0.00 0.00
2:30 am 02:30 Mostly Cloudy 50 10 46 8 88 88 ENE 7 11 29.88 1012 10 16 0.00 0.00
2:56 am 02:56 Cloudy 51 10.6 46 7.8 83 83 NE 7 11 29.85 1011 10 16 0.00 0.00
3:56 am 03:56 Cloudy 51 10.6 47 8.3 86 86 NNW 13 20 29.86 1011 10 16 0.00 0.00
4:49 am 04:49 Cloudy with Thunderstorms 52 11 46 8 82 82 N 12 19 29.85 1011 10 16 0.00 0.00
4:56 am 04:56 Cloudy with Thunderstorms 51 10.6 47 8.3 86 86 NNE 15 24 29.84 1011 10 16 0.00 0.03
5:56 am 05:56 Cloudy with Nearby Thunderstorms 50 10 48 8.9 93 93 NNE 10 17 29.85 1011 6 10 0.05 1.27
6:17 am 06:17 Cloudy 50 10 48 9 94 94 ENE 8 13 29.88 1012 7 11 0.00 0.00
6:56 am 06:56 Cloudy with Mist and Fog 50 10 49 9.4 96 96 NE 8 13 29.86 1011 5 8 0.00 0.03
7:56 am 07:56 Cloudy with Mist and Fog 51 10.6 49 9.4 92 92 NE 18 30 29.81 1010 5 8 0.00 0.00
8:31 am 08:31 Cloudy with Mist and Fog 52 11 50 10 94 94 ENE 22 35 29.77 1008 4 6 0.00 0.00
8:56 am 08:56 Cloudy with Mist and Fog 51 10.6 50 10 96 96 E 18 30 29.76 1008 4 6 0.00 0.00
9:56 am 09:56 Cloudy with Mist and Fog 53 11.7 52 11.1 96 96 ENE 15 24 29.77 1008 5 8 0.00 0.00
10:12 am 10:12 Cloudy with Mist and Fog 54 12 54 12 100 100 ENE 13 20 29.77 1008 4 6 0.00 0.00
10:35 am 10:35 Cloudy with Mist and Fog 54 12 54 12 100 100 ENE 8 13 29.80 1009 3 4 0.00 0.00
10:48 am 10:48 Cloudy with Mist and Fog 54 12 54 12 100 100 ENE 9 15 29.80 1009 3 5 0.00 0.00
10:56 am 10:56 Cloudy with Mist and Fog 54 12.2 53 11.7 97 97 ENE 10 17 29.78 1008 3 4 0.00 0.00
11:12 am 11:12 Partly Cloudy with Mist and Fog 55 13 54 12 94 94 ENE 9 15 29.80 1009 3 4 0.00 0.00
11:41 am 11:41 Partly Cloudy with Nearby Thunderstorms 55 13 54 12 94 94 E 6 9 29.80 1009 3 4 0.00 0.00
11:56 am 11:56 Partly Cloudy with Strong Thunderstorms 55 12.8 54 12.2 96 96 W 5 7 29.81 1010 2 3 0.22 5.59
12:07 pm 12:07 Partly Cloudy with Thunderstorms 54 12 54 12 100 100 NW 7 11 29.83 1010 3 5 0.00 0.00
12:36 pm 12:36 Sunny 55 13 54 12 94 94 N 8 13 29.80 1009 10 16 0.17 4.32
12:53 pm 12:53 Cloudy 55 13 54 12 94 94 N 8 13 29.83 1010 10 16 0.00 0.00
12:56 pm 12:56 Cloudy 56 13.3 54 12.2 93 93 N 8 13 29.80 1009 10 16 0.17 4.32
1:18 pm 13:18 Cloudy with Light Rain 55 13 54 12 94 94 N 15 24 29.80 1009 4 6 0.00 0.03
1:30 pm 13:30 Partly Cloudy with Light Rain 55 13 54 12 94 94 N 15 24 29.80 1009 10 16 0.00 0.03
1:56 pm 13:56 Cloudy 56 13.3 54 12.2 93 93 N 14 22 29.80 1009 10 16 0.00 0.03
2:03 pm 14:03 Cloudy 55 13 54 12 94 94 N 12 19 29.80 1009 10 16 0.00 0.00
2:27 pm 14:27 Cloudy 57 14 54 12 88 88 N 15 24 29.83 1010 10 16 0.00 0.00
2:56 pm 14:56 Cloudy 56 13.3 53 11.7 90 90 NNE 23 37 29.81 1009 10 16 0.00 0.00
3:36 pm 15:36 Cloudy 55 13 52 11 88 88 N 25 41 29.83 1010 10 16 0.00 0.00
3:56 pm 15:56 Cloudy 56 13.3 50 10 81 81 NNE 23 37 29.82 1010 10 16 0.00 0.00
4:56 pm 16:56 Cloudy 56 13.3 49 9.4 77 77 NNE 20 31 29.84 1010 10 16 0.00 0.00
5:56 pm 17:56 Cloudy 57 13.9 50 10 78 78 NNE 17 28 29.85 1011 10 16 0.00 0.00
6:56 pm 18:56 Cloudy 56 13.3 48 8.9 75 75 N 17 28 29.87 1012 10 16 0.00 0.00
7:08 pm 19:08 Cloudy 55 13 48 9 77 77 N 15 24 29.85 1011 10 16 0.00 0.00
7:56 pm 19:56 Cloudy 54 12.2 47 8.3 77 77 N 10 17 29.91 1013 10 16 0.00 0.00
8:56 pm 20:56 Cloudy 54 12.2 47 8.3 77 77 N 10 17 29.95 1014 10 16 0.00 0.00
9:25 pm 21:25 Cloudy 54 12 46 8 77 77 NNW 10 17 29.94 1014 10 16 0.00 0.00
9:34 pm 21:34 Cloudy 54 12 46 8 77 77 N 7 11 29.94 1014 10 16 0.00 0.00
9:56 pm 21:56 Mostly Cloudy 53 11.7 48 8.9 83 83 NNW 7 11 29.97 1015 10 16 0.00 0.00
10:56 pm 22:56 Cloudy 52 11.1 49 9.4 89 89 NW 9 15 30.00 1016 10 16 0.00 0.03
11:56 pm 23:56 Mostly Cloudy 51 10.6 47 8.3 86 86 NNW 9 15 30.03 1017 10 16 0.00 0.03

Powered by AerisWeather